Wind_Speed
6 6 4 4 3 2 2 2 6 10 11 10 11 10 10 8 7 6 9 12 15 13 15 15 14 9 7 9 7 9 8 9 13 8 9 7 3 9 11 5 6 8 4 2 1
6 6 6 6 5 4 4 4 5 10 11 11 12 12 12 10 8 6 7 11 13 13 13 10 10 7 7 4 4 8 4 9 5 4 5 5 3 10 6 7 7 4 2 2 6
5 6 6 6 6 6 6 5 6 8 12 12 12 12 12 11 9 9 9 10 14 13 13 6 8 7 1 8 8 7 12 6 6 2 4 5 5 14 10 8 4 5 1 2 7
5 6 5 5 6 7 7 7 7 7 11 13 14 12 13 13 8 12 11 10 14 14 13 7 9 4 3 7 5 11 5 6 1 7 8 4 16 12 9 15 5 5 4 4 4
6 7 7 5 5 6 7 8 8 8 9 12 15 15 13 14 13 11 15 13 15 15 12 9 7 4 8 13 15 18 2 7 3 8 13 5 9 7 4 4 8 2 10 13 4
6 7 7 7 6 5 6 7 9 10 10 11 14 16 15 11 16 15 16 15 15 17 15 12 5 7 10 12 13 8 5 6 6 4 5 4 8 9 7 5 5 5 6 21 17
6 6 8 8 8 7 6 6 7 9 10 11 12 15 16 11 15 20 15 19 16 16 18 13 5 9 10 5 2 10 5 6 5 6 6 7 5 15 3 7 10 5 7 14 25
6 6 7 8 9 9 7 7 7 8 9 12 12 13 12 18 19 14 13 16 19 18 20 16 7 14 11 12 10 5 4 7 9 11 12 12 12 10 5 3 1 4 2 7 15
7 6 6 6 7 9 8 7 7 9 9 11 11 12 9 16 19 14 11 9 18 20 19 18 9 10 15 12 11 6 10 12 5 8 12 17 18 15 16 13 9 4 1 4 10
6 6 6 6 6 8 9 9 9 10 10 9 9 8 9 6 8 17 17 12 16 22 20 18 11 12 13 11 14 8 20 21 10 11 14 14 16 16 18 15 15 7 5 9 7
6 6 6 6 6 7 9 9 10 12 12 12 9 13 11 12 13 14 17 15 14 21 23 17 15 16 23 20 14 20 26 29 25 19 11 12 16 20 11 14 19 16 6 13 8
6 6 6 6 6 7 8 10 9 14 12 13 13 12 15 15 14 12 15 18 18 20 18 17 24 23 16 14 15 18 23 26 24 18 15 13 14 20 11 15 15 19 14 14 10
6 6 6 6 6 7 8 10 9 14 16 4 13 8 17 15 11 13 17 18 19 19 19 20 15 14 18 16 20 20 24 22 24 23 22 16 16 12 16 16 17 23 16 14 15
6 6 6 6 6 7 8 8 8 8 8 2 3 7 21 17 7 10 19 14 20 22 16 18 17 18 18 23 22 29 22 24 21 23 14 15 12 15 15 15 22 18 21 19 10
6 6 6 6 7 7 6 7 5 2 4 2 3 3 6 16 6 3 14 15 12 19 17 23 15 19 20 23 19 25 22 22 22 22 23 17 7 12 16 15 20 14 9 13 12
6 6 6 6 7 6 4 5 4 2 2 4 2 1 5 6 7 10 16 14 11 12 16 23 19 21 19 19 23 25 25 22 19 21 12 16 16 22 23 15 10 11 20 11 17
5 5 6 6 6 7 8 7 5 3 5 5 7 6 4 10 14 9 19 20 18 18 19 21 23 22 22 25 21 20 20 13 10 8 9 17 18 21 10 10 11 8 10 16 18
4 4 5 5 7 7 9 12 3 10 15 10 7 13 5 4 12 13 15 20 22 22 18 15 14 21 20 22 20 19 19 14 7 3 14 26 6 12 10 16 15 15 14 19 23
2 1 2 4 7 8 11 14 5 8 13 18 9 18 15 9 9 15 21 21 21 17 21 10 16 14 21 18 18 29 24 21 16 16 7 14 16 11 16 17 17 17 21 24 30
3 6 9 1 4 7 11 14 8 11 10 14 11 2 8 11 9 17 25 20 19 23 20 21 25 16 15 16 16 20 30 19 14 2 4 6 8 13 13 21 16 7 21 27 32
4 10 6 8 4 3 9 12 9 5 9 17 14 15 19 18 15 14 4 12 21 16 24 28 31 27 25 21 17 17 21 27 21 10 7 3 8 9 17 21 17 14 25 22 38
6 6 8 14 7 3 1 2 10 7 7 13 13 13 13 15 19 17 13 15 17 10 10 16 36 35 31 24 21 16 14 32 28 12 14 17 28 26 27 21 22 27 22 24 37
3 5 7 10 8 3 7 5 8 9 18 13 11 12 14 15 12 7 16 17 15 12 11 5 9 17 19 27 22 15 15 15 24 37 29 16 24 24 22 19 24 19 30 24 32
6 4 3 5 6 9 13 5 10 7 11 5 12 13 15 17 15 13 17 11 18 18 16 15 12 8 10 11 16 23 20 18 18 21 30 29 26 27 19 19 16 22 19 26 25
12 10 8 4 4 10 7 10 12 15 15 14 11 13 14 14 14 13 14 14 18 17 8 10 10 13 10 11 21 26 28 26 21 21 23 29 25 28 26 14 14 16 13 11 34
10 11 11 15 16 16 11 11 9 12 13 15 12 13 11 6 2 7 10 10 11 14 12 17 12 17 20 21 21 28 37 27 24 20 22 21 24 30 25 19 22 17 18 19 30
7 12 14 12 14 18 20 16 14 14 9 10 15 16 21 14 13 18 15 15 17 10 11 10 11 14 24 22 29 32 23 21 24 21 18 15 16 24 20 19 28 20 18 22 23
Wind_Direction
254 254 248 248 249 257 267 267 224 216 209 201 198 194 193 187 181 168 154 151 151 143 121 107 110 101 84 87 18 356 317 47 28 72 123 134 7 48 65 54 327 317 341 315 199
246 246 249 246 245 242 243 236 227 219 221 216 209 203 196 195 185 148 168 163 167 152 145 132 121 113 84 56 290 303 291 345 338 39 202 157 332 5 113 61 40 353 153 178 210
256 244 241 242 242 237 235 236 234 225 223 223 224 216 206 199 186 174 163 177 180 171 158 166 144 165 58 326 298 247 279 299 58 252 232 252 123 81 128 70 52 9 65 178 192
256 246 240 238 247 238 234 231 233 233 228 225 227 226 215 208 195 188 186 186 192 188 172 185 183 221 299 22 304 227 74 308 220 224 213 146 89 81 88 3 106 87 189 198 91
258 245 241 242 251 251 244 239 235 231 231 229 228 228 223 214 200 197 193 194 197 193 189 200 167 287 326 347 356 246 210 312 357 227 219 174 322 230 315 54 129 183 184 195 152
265 255 250 245 245 255 255 245 238 234 233 232 230 228 227 215 208 206 198 194 197 198 196 203 164 305 312 329 343 349 269 342 349 279 256 250 306 277 329 23 168 197 202 191 215
273 260 253 253 248 254 263 258 247 241 235 236 235 230 226 203 223 218 196 192 196 199 200 206 205 251 284 323 30 327 322 275 266 243 253 247 205 326 235 155 173 204 216 209 211
273 259 251 247 243 249 259 269 261 250 242 238 237 237 228 206 226 216 207 203 201 198 201 211 214 234 280 297 297 309 269 273 252 242 268 261 270 269 215 194 113 349 199 212 206
288 279 265 251 238 237 243 254 260 256 252 249 244 240 233 226 235 234 228 209 209 209 204 205 215 249 242 273 283 233 304 306 315 264 235 231 265 261 258 267 212 359 186 211 228
283 278 271 267 256 243 242 247 256 258 250 247 237 234 220 197 227 231 233 224 216 216 212 211 220 239 249 242 252 273 309 312 331 339 239 247 245 264 281 247 253 249 254 247 243
273 266 260 255 254 249 248 256 266 274 272 254 235 199 185 193 201 218 214 216 212 217 216 210 232 236 239 225 255 285 294 297 295 282 226 246 258 263 272 245 247 220 267 286 244
275 267 256 251 247 249 256 268 281 286 286 267 246 219 204 204 206 189 194 207 212 213 199 208 229 234 244 237 275 287 291 297 307 299 284 254 250 253 240 283 261 223 239 293 243
281 271 261 248 240 240 240 251 267 291 305 266 247 221 199 225 239 194 207 215 213 217 204 213 221 228 246 254 272 280 284 304 303 305 299 235 239 266 266 262 254 233 250 270 255
278 273 267 260 247 247 256 271 262 286 317 318 235 213 204 222 248 206 207 201 233 229 212 234 222 234 243 263 275 282 285 288 301 312 300 263 281 277 294 285 239 233 232 242 242
269 265 263 252 250 244 238 212 222 268 5 73 117 161 197 213 156 200 198 204 214 232 216 228 229 231 254 259 270 279 295 288 291 303 315 291 293 290 297 304 224 201 252 233 238
264 259 251 249 251 247 243 221 176 206 302 190 239 322 245 215 168 146 195 219 228 245 252 251 239 252 259 261 283 285 294 286 295 294 292 289 301 278 291 268 188 220 270 229 228
263 258 248 241 225 216 206 193 186 215 30 256 252 249 311 253 190 197 195 208 216 226 251 248 246 247 255 270 264 276 295 296 321 314 247 300 303 292 272 225 210 299 217 243 217
269 260 252 228 220 211 193 190 186 41 16 344 334 236 234 151 193 198 198 212 226 232 263 264 285 230 228 245 260 264 277 246 222 223 286 301 301 265 243 235 213 209 221 222 203
273 264 252 229 209 208 191 203 170 17 358 337 35 198 221 235 257 254 223 225 227 231 235 248 253 234 278 263 279 255 253 256 256 278 294 296 294 264 238 236 229 262 227 216 204
174 131 71 20 207 206 205 211 191 24 3 330 330 325 329 327 328 359 242 236 242 240 245 249 257 280 280 266 274 294 248 255 265 225 282 286 284 274 261 231 262 231 221 228 207
129 141 67 36 39 268 232 229 225 54 3 329 319 314 301 307 309 327 313 260 259 249 250 249 248 279 278 279 286 308 256 243 256 244 181 268 274 317 315 280 237 180 209 231 217
99 116 76 32 349 296 119 335 324 351 312 298 302 302 324 326 306 297 316 339 331 310 320 271 245 243 269 282 283 280 295 240 235 247 256 253 268 284 292 279 249 235 228 247 224
123 135 33 0 1 10 345 331 327 319 343 293 323 273 275 302 316 297 299 326 320 343 337 292 229 229 247 264 270 278 285 288 270 248 258 254 277 290 294 252 260 220 223 216 226
150 149 255 315 1 327 323 271 328 299 321 305 319 334 275 280 280 296 303 311 310 321 320 310 269 256 218 241 285 297 296 302 312 276 250 257 274 278 296 245 220 198 219 236 223
185 193 188 229 269 282 307 320 314 320 294 288 289 314 306 303 311 313 286 277 281 312 317 298 279 267 249 258 261 275 287 291 304 305 298 269 274 272 267 256 234 227 221 220 191
240 236 262 251 256 261 255 252 318 293 289 280 283 276 290 357 356 343 323 308 314 314 321 290 299 291 277 268 274 273 265 284 295 301 308 317 305 291 272 247 231 209 223 195 195
271 268 270 260 256 258 245 249 266 296 259 263 267 273 264 266 273 284 264 278 289 307 306 307 300 298 284 275 276 272 270 283 278 296 330 328 326 297 275 238 217 213 215 212 194
Height
3155 3155 3156 3157 3157 3157 3156 3156 3156 3157 3159 3161 3163 3165 3167 3169 3170 3172 3173 3175 3176 3178 3179 3180 3181 3183 3184 3186 3184 3186 3187 3185 3185 3184 3187 3186 3183 3183 3183 3182 3181 3179 3175 3172 3173
3154 3155 3155 3156 3156 3156 3156 3156 3156 3157 3158 3160 3162 3164 3166 3169 3171 3172 3174 3175 3176 3178 3180 3181 3181 3181 3183 3185 3185 3185 3185 3182 3184 3184 3184 3183 3183 3183 3185 3184 3181 3178 3175 3173 3172
3152 3153 3154 3154 3155 3155 3155 3156 3155 3156 3157 3158 3160 3162 3165 3167 3171 3172 3173 3174 3176 3178 3180 3181 3181 3181 3183 3183 3183 3183 3182 3182 3183 3183 3183 3184 3184 3183 3183 3185 3182 3178 3174 3173 3173
3151 3151 3152 3153 3153 3154 3154 3155 3155 3155 3156 3157 3158 3160 3162 3165 3171 3171 3172 3173 3175 3178 3180 3181 3182 3183 3184 3184 3182 3184 3182 3181 3180 3180 3183 3185 3185 3187 3183 3182 3181 3178 3176 3174 3174
3150 3151 3151 3151 3152 3152 3153 3153 3154 3154 3155 3155 3157 3158 3161 3164 3167 3168 3170 3172 3175 3177 3179 3180 3182 3182 3182 3182 3183 3185 3184 3181 3180 3181 3181 3182 3182 3183 3184 3182 3181 3180 3178 3176 3176
3149 3149 3149 3150 3151 3151 3151 3152 3153 3153 3153 3154 3155 3157 3159 3163 3163 3166 3168 3171 3173 3176 3178 3179 3181 3180 3179 3177 3181 3183 3184 3182 3182 3180 3180 3183 3184 3181 3183 3183 3181 3182 3181 3179 3178
3147 3147 3147 3148 3149 3149 3150 3150 3150 3151 3151 3152 3153 3155 3157 3162 3160 3163 3166 3167 3171 3174 3177 3178 3179 3179 3178 3176 3178 3179 3181 3182 3182 3180 3181 3183 3182 3181 3183 3181 3180 3181 3179 3178 3178
3146 3146 3146 3147 3147 3148 3148 3148 3148 3148 3149 3150 3152 3153 3155 3157 3156 3161 3165 3167 3169 3171 3174 3176 3178 3177 3177 3177 3177 3177 3179 3181 3182 3183 3181 3182 3179 3177 3179 3178 3178 3178 3176 3175 3175
3143 3144 3144 3145 3146 3146 3147 3147 3146 3146 3147 3148 3150 3152 3154 3155 3157 3160 3162 3165 3167 3169 3172 3175 3175 3176 3178 3177 3176 3176 3178 3179 3179 3177 3178 3180 3177 3176 3176 3176 3177 3178 3177 3176 3176
3142 3142 3142 3142 3143 3144 3144 3145 3145 3145 3146 3147 3148 3152 3152 3152 3154 3157 3160 3162 3165 3167 3170 3172 3174 3174 3175 3176 3174 3175 3176 3177 3176 3177 3177 3175 3174 3175 3174 3175 3176 3178 3177 3175 3175
3141 3141 3141 3141 3141 3141 3143 3144 3146 3146 3144 3145 3146 3147 3148 3150 3150 3153 3156 3159 3161 3164 3166 3169 3170 3170 3173 3173 3174 3175 3175 3175 3173 3172 3172 3173 3171 3172 3172 3173 3173 3177 3177 3173 3173
3140 3139 3139 3139 3140 3140 3141 3142 3143 3143 3141 3141 3142 3145 3146 3147 3148 3149 3153 3156 3158 3160 3163 3166 3164 3168 3170 3172 3172 3172 3172 3169 3170 3169 3170 3170 3168 3166 3168 3170 3169 3172 3169 3169 3168
3137 3137 3138 3138 3139 3140 3140 3140 3141 3140 3140 3140 3139 3142 3145 3146 3146 3147 3150 3152 3155 3158 3160 3161 3162 3166 3168 3167 3169 3168 3168 3167 3168 3165 3164 3164 3166 3165 3164 3165 3165 3167 3169 3169 3168
3136 3136 3136 3136 3139 3138 3139 3140 3140 3140 3139 3138 3137 3140 3141 3144 3145 3144 3147 3151 3153 3155 3159 3160 3161 3162 3163 3164 3167 3166 3164 3164 3165 3164 3163 3163 3161 3161 3160 3157 3157 3160 3165 3166 3167
3134 3134 3134 3135 3135 3137 3138 3137 3138 3140 3140 3139 3138 3139 3140 3142 3143 3143 3145 3147 3149 3152 3157 3155 3157 3160 3161 3161 3165 3163 3163 3160 3160 3160 3158 3158 3158 3157 3157 3155 3154 3157 3160 3161 3164
3132 3132 3133 3134 3134 3136 3137 3138 3140 3142 3138 3137 3138 3139 3139 3140 3142 3143 3145 3147 3150 3151 3153 3152 3155 3155 3156 3157 3159 3160 3159 3157 3157 3157 3154 3156 3157 3153 3155 3155 3155 3155 3157 3157 3160
3130 3131 3132 3132 3133 3134 3135 3138 3141 3138 3140 3141 3138 3137 3138 3138 3141 3141 3143 3145 3147 3149 3149 3150 3149 3150 3153 3153 3153 3156 3156 3154 3156 3157 3153 3154 3155 3152 3152 3153 3154 3153 3155 3156 3159
3129 3130 3130 3131 3131 3132 3134 3139 3139 3139 3139 3139 3137 3138 3138 3137 3139 3141 3142 3143 3144 3146 3147 3147 3146 3146 3148 3150 3151 3151 3153 3154 3160 3160 3150 3151 3152 3151 3148 3148 3148 3152 3153 3154 3157
3129 3129 3129 3130 3130 3132 3135 3137 3137 3137 3138 3136 3135 3135 3137 3139 3140 3140 3138 3139 3140 3142 3145 3145 3143 3142 3145 3148 3151 3148 3150 3151 3149 3151 3151 3148 3148 3147 3146 3146 3146 3145 3149 3151 3153
3128 3129 3130 3130 3130 3131 3134 3135 3137 3138 3136 3137 3135 3136 3135 3135 3137 3135 3135 3135 3136 3138 3140 3140 3140 3139 3141 3144 3144 3143 3146 3147 3147 3150 3152 3145 3147 3144 3143 3142 3143 3141 3145 3148 3150
3129 3130 3131 3130 3130 3131 3132 3134 3136 3137 3138 3137 3135 3134 3133 3133 3134 3134 3135 3133 3137 3134 3135 3136 3138 3133 3137 3138 3139 3140 3140 3142 3143 3143 3145 3148 3141 3141 3140 3139 3140 3140 3140 3146 3147
3129 3131 3130 3130 3132 3130 3131 3133 3134 3133 3134 3135 3133 3133 3132 3133 3131 3132 3132 3134 3132 3131 3129 3129 3130 3131 3129 3133 3135 3136 3136 3137 3138 3139 3137 3137 3133 3138 3138 3135 3136 3136 3137 3138 3139
3129 3130 3129 3129 3130 3131 3132 3131 3132 3132 3131 3132 3132 3132 3131 3131 3130 3129 3128 3129 3127 3125 3125 3127 3124 3125 3127 3129 3131 3133 3135 3136 3135 3134 3131 3132 3129 3133 3133 3131 3129 3130 3130 3134 3136
3130 3129 3129 3129 3129 3130 3129 3128 3128 3129 3130 3130 3130 3129 3128 3128 3128 3126 3126 3125 3123 3123 3123 3124 3123 3122 3123 3126 3126 3127 3127 3130 3131 3130 3127 3125 3126 3128 3129 3127 3127 3128 3129 3132 3135
3128 3127 3127 3128 3129 3129 3129 3129 3127 3127 3127 3128 3127 3128 3126 3124 3123 3123 3123 3121 3119 3119 3120 3122 3121 3120 3121 3122 3123 3123 3123 3124 3126 3126 3125 3124 3120 3123 3127 3127 3127 3124 3125 3126 3130
3128 3128 3127 3127 3126 3126 3127 3125 3125 3122 3124 3124 3123 3123 3123 3122 3120 3119 3119 3118 3118 3118 3118 3119 3119 3117 3116 3119 3120 3120 3119 3120 3121 3120 3119 3119 3117 3117 3119 3123 3123 3120 3122 3126 3128
3125 3124 3123 3123 3123 3123 3123 3122 3120 3120 3121 3120 3119 3118 3119 3120 3118 3118 3117 3116 3117 3116 3117 3117 3117 3117 3114 3118 3116 3113 3116 3116 3117 3118 3116 3116 3115 3112 3114 3115 3116 3117 3117 3120 3128